Torna al catalogo

STARLINK-35666

AttivoComunicazioniVLEO
NORAD 66222·PAYLOAD·🇺🇸 United States

Lanciato Oct 28, 2025 da Vandenberg Space Force Base

Loading…

Prossimi Passaggi (prossime 24 ore)

TLE

AggiornatoSource: CelesTrak SupGP

Epoca: Sep 15, 2026, 02:55 UTC

1 66222C 25244S   26258.12201389 -.00028348  00000+0 -83787-3 0  2584
2 66222  53.1590  68.5513 0001248  87.9107 253.7011 15.34392273    17

Traccia STARLINK-35666 in tempo reale con AllMySat

Download on the App Store